2025-135BT

Last updated on Fri Aug 08 2025 00:02:05 GMT+0000 (Coordinated Universal Time)

1 64840U 25135BT 25218.91615993 .00001550 00000+0 15645-3 0 9993 2 64840 97.7485 332.6058 0004525 313.5840 46.5003 14.92505256 7005
UTC large
Height (km)
Speed (km/s)
/
Latitude / Longitude
Inclination (degrees)
Orbital Period (minutes)
Azimuth
Elevation
Range (km)
Doppler Factor

Next 0 passes for location: London (51.5072 / 0.1276)

Sorry there are no passes over London.